sat.trackr.live / text

‹ back to catalog

STARLINK-38070

NORAD 69990 · 2026-159R

PAYLOAD ACTIVE UNKNOWN

§ Identity

Operator
Country
US
Launch date
2026-07-11
Launch site
AFWTR
Launch vehicle
Mass (kg)
RCS (m²)

Purposes: comms

External: N2YO · Heavens-Above · Gunter

§ Orbital elements

Epoch: 2026-09-20T00:00:02.998944Z

Period
92.92 min
Inclination
97.2856°
Eccentricity
0.0001843
Mean motion
15.49679387 rev/d
Perigee alt
416.4 km
Apogee alt
418.9 km
Semi-major
6,795.8 km
B*
-3.8535e-2
RAAN
104.8339°
Arg perigee
106.6796°
Mean anomaly
163.9419°
Rev number
596

§ Raw data

STARLINK-380701 69990U 26159R   26263.00003471 -.01915721  00000+0 -38535-1 0  99922 69990  97.2856 104.8339 0001843 106.6796 163.9419 15.49679387  5963

JSON: /api/v1/satellites/69990 · /tle

For live sub-satellite position, see the globe view (requires WebGL).

§ Visibility from observer

Set your observer location to see the next 7 days of passes ≥ 10°. The values pass through the URL so the page stays shareable.

No JS? Fill the form by hand. The geolocation button needs JavaScript.